This is the latest recevied weather packets stored in our database for station/object K2CAT. If no packets are shown the sender has not sent any weather packets the latest 10 day(s).
| Time | Temp. | Humidity | Pressure | Rain* | Wind** | Luminosity | Snow |
|---|---|---|---|---|---|---|---|
| 1777065055 | 16.67° C | 25% | 1010 hPa | 0 mm | - | 176 W/m² | - |
| 1777064753 | 17.22° C | 24% | 1010.1 hPa | 0 mm | - | 202 W/m² | - |
| 1777064449 | 16.67° C | 25% | 1010 hPa | 0 mm | - | 312 W/m² | - |
| 1777064145 | 17.22° C | 24% | 1009.9 hPa | 0 mm | - | 320 W/m² | - |
| 1777063840 | 17.22° C | 25% | 1010.1 hPa | 0 mm | - | 337 W/m² | - |
| 1777063536 | 16.67° C | 24% | 1010.1 hPa | 0 mm | - | 258 W/m² | - |
| 1777063231 | 16.11° C | 27% | 1010.2 hPa | 0 mm | - | 363 W/m² | - |
| 1777062928 | 17.22° C | 25% | 1009.6 hPa | 0 mm | - | 376 W/m² | - |
| 1777062626 | 16.67° C | 25% | 1009.8 hPa | 0 mm | - | 390 W/m² | - |
| 1777062323 | 16.67° C | 24% | 1009.8 hPa | 0 mm | - | 401 W/m² | - |
| 1777062020 | 16.67° C | 22% | 1009.8 hPa | 0 mm | - | 412 W/m² | - |
| 1777061717 | 16.11° C | 26% | 1009.9 hPa | 0 mm | - | 424 W/m² | - |
| 1777061413 | 16.67° C | 25% | 1009.9 hPa | 0 mm | - | 436 W/m² | - |
| 1777061114 | 17.22° C | 26% | 1009.7 hPa | 0 mm | - | 448 W/m² | - |
| 1777060809 | 17.22° C | 24% | 1009.8 hPa | 0 mm | - | 460 W/m² | - |
| 1777060505 | 17.22° C | 24% | 1009.9 hPa | 0 mm | - | 472 W/m² | - |
| 1777060201 | 16.67° C | 26% | 1009.7 hPa | 0 mm | - | 484 W/m² | - |
| 1777059897 | 16.67° C | 28% | 1009.7 hPa | 0 mm | - | 494 W/m² | - |
| 1777059593 | 17.22° C | 31% | 1009.9 hPa | 0 mm | - | 505 W/m² | - |
| 1777059290 | 16.67° C | 31% | 1009.8 hPa | 0 mm | - | 515 W/m² | - |
| 1777058986 | 16.67° C | 28% | 1009.9 hPa | 0 mm | - | 524 W/m² | - |
| 1777058686 | 16.67° C | 28% | 1009.9 hPa | 0 mm | - | 534 W/m² | - |
| 1777058382 | 16.67° C | 26% | 1010 hPa | 0 mm | - | 547 W/m² | - |
| 1777058080 | 17.78° C | 30% | 1010.1 hPa | 0 mm | - | 557 W/m² | - |
| 1777057774 | 16.67° C | 32% | 1010.2 hPa | 0 mm | - | 566 W/m² | - |
* Rain latest hour (hover to see other rain measurements)
** Current wind speed in m/s (hover to see current wind gust speed)